User: anonymous   Login
Location: Unspecified
(0.0000°N, 0.0000°E)
Time: 19:27:45
(UTC+00:00)
Language:

STARLINK-3718 - Orbit

View from above orbital plane
View from above orbital plane
View from above satellite
View from above satellite

Ground track
Ground track

The orbit is defined by the following mean orbital elements,

1 52132U          26145.52096868 +.00000000 +00000-0 -19181-4 0 00003
2 52132  53.2130  84.2089 0001223  64.8252 295.2867 15.08836064    05
Epoch (UTC): 25 May 2026 12:30:11
Eccentricity: 0.0001223
inclination: 53.2130°
perigee height: 539 km
apogee height: 541 km
right ascension of ascending node: 84.2089°
argument of perigee: 64.8252°
revolutions per day: 15.08836064
mean anomaly at epoch: 295.2867°

The dashed part of the orbit path shows where the satellite is in the earth's shadow,  

DLR